TimeEST,TemperatureF,Dew PointF,Humidity,Sea Level PressureIn,VisibilityMPH,Wind Direction,Wind SpeedMPH,Gust SpeedMPH,PrecipitationIn,Events,Conditions,WindDirDegrees,DateUTC
12:54 AM,33.1,26.1,75,30.48,10.0,NNE,6.9,-,N/A,,Clear,30,2012-11-14 05:54:00
1:54 AM,33.1,26.1,75,30.47,10.0,NNE,6.9,-,N/A,,Clear,30,2012-11-14 06:54:00
2:54 AM,33.1,25.0,72,30.48,10.0,North,4.6,-,N/A,,Clear,360,2012-11-14 07:54:00
3:54 AM,30.9,26.1,82,30.48,10.0,North,3.5,-,N/A,,Clear,350,2012-11-14 08:54:00
4:54 AM,30.0,25.0,82,30.49,10.0,North,4.6,-,N/A,,Clear,360,2012-11-14 09:54:00
5:54 AM,30.0,25.0,82,30.51,10.0,North,3.5,-,N/A,,Clear,360,2012-11-14 10:54:00
6:54 AM,30.0,25.0,82,30.51,10.0,North,4.6,-,N/A,,Clear,10,2012-11-14 11:54:00
7:54 AM,32.0,26.1,79,30.53,10.0,NE,3.5,-,N/A,,Clear,40,2012-11-14 12:54:00
8:54 AM,37.0,25.0,62,30.55,10.0,North,9.2,-,N/A,,Clear,10,2012-11-14 13:54:00
9:54 AM,39.9,25.0,55,30.55,10.0,NE,16.1,21.9,N/A,,Clear,40,2012-11-14 14:54:00
10:54 AM,41.0,26.1,55,30.53,10.0,NE,10.4,17.3,N/A,,Clear,50,2012-11-14 15:54:00
11:54 AM,44.1,26.1,49,30.49,10.0,North,9.2,-,N/A,,Clear,10,2012-11-14 16:54:00
12:54 PM,45.0,27.0,49,30.47,10.0,Variable,5.8,-,N/A,,Clear,0,2012-11-14 17:54:00
1:54 PM,46.0,27.0,47,30.45,10.0,NNE,5.8,-,N/A,,Clear,30,2012-11-14 18:54:00
2:54 PM,46.0,27.0,47,30.44,10.0,East,6.9,-,N/A,,Clear,80,2012-11-14 19:54:00
3:54 PM,44.1,27.0,51,30.44,10.0,NE,6.9,-,N/A,,Clear,50,2012-11-14 20:54:00
4:54 PM,42.1,27.0,55,30.43,10.0,NE,8.1,-,N/A,,Clear,50,2012-11-14 21:54:00
5:54 PM,36.0,27.0,70,30.44,10.0,ENE,3.5,-,N/A,,Clear,60,2012-11-14 22:54:00
6:54 PM,36.0,27.0,70,30.45,10.0,Calm,Calm,-,N/A,,Clear,0,2012-11-14 23:54:00
7:54 PM,37.9,28.0,68,30.46,10.0,ENE,6.9,-,N/A,,Clear,60,2012-11-15 00:54:00
8:54 PM,36.0,28.0,73,30.46,10.0,NNE,4.6,-,N/A,,Clear,30,2012-11-15 01:54:00
9:54 PM,35.1,27.0,72,30.46,10.0,North,5.8,-,N/A,,Clear,10,2012-11-15 02:54:00
10:54 PM,34.0,27.0,75,30.46,10.0,Calm,Calm,-,N/A,,Clear,0,2012-11-15 03:54:00
11:54 PM,33.1,28.0,82,30.44,10.0,NNE,5.8,-,N/A,,Clear,20,2012-11-15 04:54:00